QPF
0.04 0.04 0.03 0.03 0.03 0.04 0.05 0.06 0.07 0.06 0.05 0.05 0.05 0.05 0.05 0.05 0.05 0.06 0.07 0.08 0.08 0.08 0.07 0.07 0.06 0.05 0.05 0.05 0.05 0.06 0.06 0.07 0.07 0.04 0.03 0.03 0.03 0.04 0.04 0.05 0.05 0.06 0.07
0.02 0.01 0.01 0.02 0.03 0.04 0.05 0.05 0.05 0.04 0.04 0.04 0.05 0.05 0.06 0.06 0.07 0.07 0.06 0.06 0.06 0.06 0.06 0.06 0.06 0.06 0.06 0.06 0.07 0.06 0.06 0.06 0.06 0.05 0.03 0.03 0.03 0.04 0.04 0.04 0.05 0.06 0.07
0.01 0.01 0.01 0.01 0.02 0.03 0.04 0.06 0.05 0.04 0.04 0.04 0.05 0.05 0.05 0.05 0.06 0.07 0.07 0.07 0.07 0.07 0.07 0.07 0.07 0.08 0.08 0.07 0.06 0.06 0.05 0.06 0.06 0.06 0.04 0.04 0.04 0.05 0.05 0.06 0.07 0.07 0.06
0.01 0.02 0.02 0.02 0.02 0.02 0.03 0.03 0.04 0.03 0.02 0.03 0.03 0.02 0.02 0.03 0.03 0.03 0.04 0.04 0.04 0.04 0.04 0.05 0.04 0.04 0.04 0.04 0.04 0.05 0.05 0.06 0.06 0.08 0.08 0.08 0.08 0.08 0.08 0.08 0.07 0.06 0.06
0.01 0.02 0.02 0.02 0.02 0.02 0.02 0.02 0.02 0.02 0.02 0.02 0.01 0.01 0.01 0.02 0.02 0.02 0.03 0.03 0.03 0.03 0.03 0.03 0.04 0.04 0.05 0.05 0.05 0.06 0.06 0.07 0.07 0.08 0.08 0.07 0.07 0.07 0.07 0.06 0.05 0.05 0.05
0.01 0.01 0.01 0.01 0.01 0.02 0.02 0.02 0.02 0.02 0.02 0.02 0.01 0.01 0.01 0.02 0.02 0.02 0.02 0.02 0.02 0.02 0.03 0.03 0.03 0.04 0.04 0.05 0.05 0.06 0.06 0.06 0.06 0.06 0.06 0.06 0.06 0.06 0.06 0.06 0.06 0.06 0.06
0.01 0.01 0.01 0.01 0.01 0.01 0.02 0.02 0.02 0.02 0.02 0.01 0.01 0.01 0.01 0.01 0.01 0.01 0.02 0.02 0.02 0.02 0.02 0.03 0.03 0.03 0.04 0.04 0.04 0.04 0.05 0.05 0.05 0.05 0.06 0.06 0.06 0.06 0.06 0.07 0.06 0.06 0.05
0.01 0.01 0.01 0.01 0.01 0.01 0.02 0.02 0.02 0.02 0.02 0.01 0.01 0.01 0.01 0.01 0.01 0.01 0.01 0.01 0.01 0.01 0.01 0.02 0.02 0.02 0.02 0.03 0.03 0.03 0.03 0.03 0.03 0.03 0.03 0.04 0.04 0.04 0.05 0.05 0.05 0.05 0.04
0.00 0.01 0.01 0.01 0.01 0.01 0.01 0.01 0.01 0.01 0.01 0.01 0.01 0.01 0.01 0.00 0.01 0.01 0.01 0.00 0.00 0.00 0.00 0.00 0.01 0.01 0.01 0.02 0.03 0.03 0.03 0.03 0.03 0.03 0.03 0.03 0.03 0.03 0.03 0.04 0.04 0.04 0.03
0.00 0.00 0.00 0.01 0.01 0.01 0.01 0.01 0.01 0.01 0.01 0.00 0.00 0.00 0.00 0.00 0.00 0.00 0.00 0.00 0.00 0.00 0.00 0.00 0.00 0.01 0.01 0.02 0.03 0.03 0.04 0.03 0.03 0.03 0.02 0.02 0.03 0.02 0.03 0.03 0.03 0.03 0.03
0.01 0.00 0.01 0.01 0.00 0.00 0.00 0.01 0.01 0.01 0.01 0.01 0.00 0.00 0.00 0.00 0.00 0.00 0.00 0.00 0.01 0.01 0.01 0.00 0.00 0.01 0.01 0.02 0.02 0.03 0.04 0.04 0.04 0.03 0.03 0.03 0.03 0.02 0.02 0.02 0.02 0.03 0.03
0.01 0.00 0.00 0.00 0.00 0.00 0.00 0.01 0.01 0.01 0.01 0.01 0.01 0.00 0.00 0.00 0.00 0.00 0.00 0.00 0.01 0.01 0.01 0.00 0.00 0.01 0.01 0.02 0.02 0.03 0.03 0.04 0.04 0.04 0.04 0.04 0.03 0.02 0.02 0.02 0.02 0.03 0.03
0.00 0.00 0.00 0.00 0.00 0.00 0.00 0.00 0.00 0.01 0.01 0.01 0.01 0.00 0.00 0.00 0.00 0.00 0.00 0.00 0.01 0.01 0.01 0.01 0.01 0.01 0.02 0.02 0.02 0.02 0.03 0.03 0.03 0.04 0.04 0.03 0.03 0.02 0.02 0.03 0.03 0.04 0.04
0.00 0.00 0.00 0.00 0.00 0.00 0.00 0.00 0.00 0.00 0.01 0.01 0.01 0.00 0.00 0.00 0.00 0.00 0.00 0.01 0.01 0.01 0.01 0.01 0.01 0.01 0.02 0.02 0.02 0.02 0.02 0.02 0.03 0.03 0.03 0.03 0.03 0.03 0.03 0.03 0.03 0.04 0.04
0.00 0.00 0.00 0.00 0.00 0.00 0.00 0.00 0.00 0.00 0.00 0.01 0.01 0.01 0.01 0.01 0.00 0.01 0.01 0.02 0.02 0.02 0.02 0.02 0.02 0.02 0.01 0.01 0.02 0.02 0.02 0.02 0.03 0.03 0.03 0.03 0.03 0.02 0.03 0.03 0.03 0.03 0.04
0.00 0.00 0.00 0.00 0.00 0.00 0.00 0.00 0.00 0.00 0.00 0.01 0.01 0.01 0.01 0.01 0.01 0.01 0.02 0.02 0.02 0.02 0.02 0.02 0.02 0.01 0.01 0.01 0.01 0.01 0.02 0.02 0.03 0.03 0.03 0.03 0.03 0.02 0.02 0.02 0.02 0.02 0.03
0.00 0.00 0.00 0.00 0.00 0.00 0.00 0.00 0.00 0.00 0.00 0.00 0.00 0.01 0.01 0.01 0.01 0.01 0.01 0.01 0.01 0.01 0.02 0.02 0.01 0.01 0.01 0.02 0.02 0.02 0.02 0.03 0.04 0.04 0.04 0.03 0.03 0.02 0.02 0.02 0.02 0.02 0.02
0.00 0.00 0.00 0.00 0.00 0.00 0.00 0.00 0.00 0.00 0.00 0.00 0.00 0.00 0.00 0.01 0.01 0.01 0.01 0.01 0.01 0.01 0.01 0.01 0.01 0.01 0.02 0.02 0.02 0.03 0.03 0.04 0.04 0.04 0.04 0.04 0.04 0.03 0.03 0.02 0.02 0.02 0.03
0.00 0.00 0.00 0.00 0.00 0.00 0.00 0.01 0.01 0.01 0.00 0.00 0.00 0.00 0.00 0.00 0.01 0.01 0.01 0.01 0.01 0.01 0.01 0.01 0.02 0.02 0.02 0.02 0.03 0.03 0.04 0.04 0.04 0.04 0.04 0.04 0.04 0.04 0.04 0.03 0.03 0.03 0.03
0.00 0.00 0.00 0.00 0.00 0.01 0.01 0.01 0.01 0.01 0.01 0.01 0.01 0.01 0.01 0.01 0.01 0.01 0.01 0.01 0.01 0.01 0.01 0.02 0.02 0.02 0.03 0.03 0.04 0.04 0.04 0.04 0.04 0.04 0.04 0.04 0.03 0.03 0.03 0.03 0.03 0.03 0.03
0.00 0.00 0.00 0.00 0.01 0.01 0.01 0.01 0.01 0.01 0.01 0.01 0.01 0.01 0.01 0.01 0.01 0.01 0.01 0.01 0.01 0.01 0.02 0.02 0.02 0.03 0.03 0.04 0.05 0.05 0.04 0.04 0.03 0.03 0.03 0.03 0.03 0.03 0.03 0.03 0.04 0.04 0.04
0.00 0.00 0.01 0.01 0.01 0.01 0.01 0.01 0.01 0.01 0.01 0.01 0.01 0.01 0.01 0.01 0.01 0.01 0.01 0.01 0.01 0.01 0.02 0.02 0.02 0.03 0.03 0.04 0.04 0.04 0.04 0.04 0.04 0.04 0.03 0.03 0.03 0.03 0.04 0.04 0.03 0.03 0.03
0.00 0.01 0.01 0.01 0.01 0.01 0.01 0.01 0.01 0.01 0.02 0.02 0.02 0.02 0.01 0.01 0.01 0.01 0.01 0.01 0.01 0.02 0.02 0.02 0.03 0.03 0.03 0.03 0.03 0.04 0.03 0.03 0.04 0.04 0.03 0.03 0.03 0.03 0.03 0.03 0.02 0.02 0.02
0.01 0.01 0.01 0.01 0.01 0.01 0.01 0.01 0.01 0.02 0.02 0.02 0.02 0.02 0.02 0.01 0.01 0.01 0.01 0.01 0.02 0.02 0.02 0.02 0.02 0.03 0.03 0.03 0.03 0.04 0.04 0.04 0.04 0.04 0.04 0.03 0.03 0.03 0.02 0.02 0.02 0.02 0.02
0.01 0.01 0.01 0.01 0.01 0.01 0.01 0.02 0.02 0.02 0.02 0.02 0.02 0.02 0.02 0.02 0.02 0.01 0.02 0.02 0.02 0.02 0.02 0.02 0.02 0.02 0.03 0.03 0.03 0.03 0.04 0.04 0.03 0.03 0.03 0.03 0.02 0.02 0.02 0.02 0.02 0.02 0.02
0.01 0.01 0.01 0.01 0.01 0.02 0.02 0.02 0.02 0.02 0.02 0.02 0.02 0.02 0.02 0.02 0.02 0.01 0.02 0.02 0.02 0.02 0.02 0.02 0.02 0.02 0.02 0.02 0.03 0.03 0.03 0.03 0.03 0.02 0.02 0.02 0.01 0.01 0.01 0.01 0.01 0.01 0.01
MSLP
1031.38 1031.06 1030.73 1030.35 1029.91 1029.40 1028.82 1028.20 1027.55 1026.89 1026.23 1025.58 1024.93 1024.27 1023.60 1022.90 1022.19 1021.47 1020.78 1020.13 1019.54 1019.03 1018.60 1018.21 1017.85 1017.47 1017.03 1016.50 1015.87 1015.13 1014.31 1013.44 1012.56 1011.71 1010.92 1010.22 1009.60 1009.06 1008.59 1008.16 1007.76 1007.38 1007.01
1031.23 1030.89 1030.52 1030.10 1029.61 1029.06 1028.46 1027.81 1027.15 1026.47 1025.81 1025.15 1024.50 1023.83 1023.13 1022.42 1021.67 1020.92 1020.19 1019.48 1018.84 1018.27 1017.77 1017.32 1016.90 1016.48 1016.03 1015.52 1014.93 1014.27 1013.55 1012.79 1012.04 1011.30 1010.61 1009.98 1009.40 1008.88 1008.39 1007.93 1007.49 1007.07 1006.67
1030.95 1030.56 1030.14 1029.67 1029.14 1028.55 1027.91 1027.25 1026.58 1025.91 1025.26 1024.61 1023.96 1023.30 1022.60 1021.88 1021.12 1020.35 1019.59 1018.84 1018.15 1017.51 1016.93 1016.40 1015.91 1015.43 1014.94 1014.41 1013.85 1013.25 1012.62 1011.97 1011.33 1010.71 1010.13 1009.58 1009.06 1008.56 1008.07 1007.60 1007.13 1006.68 1006.27
1030.58 1030.14 1029.65 1029.12 1028.54 1027.91 1027.25 1026.58 1025.91 1025.26 1024.62 1023.98 1023.34 1022.68 1021.99 1021.26 1020.50 1019.72 1018.93 1018.15 1017.41 1016.71 1016.06 1015.46 1014.89 1014.34 1013.80 1013.25 1012.70 1012.14 1011.58 1011.03 1010.50 1009.99 1009.51 1009.04 1008.58 1008.11 1007.64 1007.17 1006.70 1006.24 1005.82
1030.17 1029.67 1029.12 1028.53 1027.89 1027.23 1026.56 1025.88 1025.22 1024.57 1023.93 1023.29 1022.65 1021.98 1021.28 1020.55 1019.77 1018.97 1018.16 1017.36 1016.59 1015.84 1015.14 1014.47 1013.84 1013.23 1012.65 1012.08 1011.53 1011.01 1010.51 1010.04 1009.60 1009.19 1008.79 1008.40 1007.99 1007.57 1007.13 1006.66 1006.20 1005.75 1005.35
1029.77 1029.21 1028.60 1027.96 1027.29 1026.60 1025.90 1025.22 1024.54 1023.88 1023.23 1022.58 1021.91 1021.21 1020.48 1019.71 1018.91 1018.09 1017.27 1016.45 1015.65 1014.88 1014.14 1013.44 1012.77 1012.13 1011.52 1010.94 1010.40 1009.90 1009.45 1009.05 1008.69 1008.35 1008.03 1007.70 1007.34 1006.96 1006.54 1006.10 1005.65 1005.23 1004.85
1029.44 1028.83 1028.18 1027.49 1026.78 1026.06 1025.34 1024.63 1023.94 1023.25 1022.57 1021.87 1021.14 1020.39 1019.60 1018.78 1017.94 1017.09 1016.24 1015.41 1014.61 1013.83 1013.09 1012.38 1011.70 1011.05 1010.43 1009.86 1009.33 1008.86 1008.44 1008.09 1007.78 1007.50 1007.23 1006.95 1006.63 1006.28 1005.89 1005.47 1005.05 1004.66 1004.32
1029.21 1028.57 1027.88 1027.15 1026.40 1025.65 1024.90 1024.16 1023.42 1022.68 1021.93 1021.16 1020.36 1019.53 1018.67 1017.78 1016.89 1016.01 1015.14 1014.31 1013.52 1012.76 1012.03 1011.33 1010.67 1010.02 1009.41 1008.84 1008.33 1007.87 1007.48 1007.15 1006.87 1006.63 1006.39 1006.14 1005.85 1005.53 1005.16 1004.77 1004.39 1004.03 1003.74
1029.13 1028.46 1027.74 1026.97 1026.17 1025.37 1024.58 1023.78 1022.98 1022.17 1021.35 1020.49 1019.59 1018.67 1017.73 1016.78 1015.83 1014.92 1014.05 1013.22 1012.44 1011.71 1011.01 1010.34 1009.69 1009.06 1008.46 1007.90 1007.38 1006.93 1006.54 1006.21 1005.94 1005.71 1005.48 1005.25 1004.98 1004.68 1004.34 1003.99 1003.64 1003.32 1003.09
1029.21 1028.51 1027.75 1026.93 1026.08 1025.22 1024.35 1023.48 1022.61 1021.71 1020.79 1019.84 1018.85 1017.85 1016.83 1015.81 1014.83 1013.90 1013.02 1012.21 1011.45 1010.75 1010.08 1009.43 1008.79 1008.17 1007.56 1006.99 1006.45 1005.98 1005.57 1005.22 1004.94 1004.69 1004.47 1004.24 1003.99 1003.72 1003.41 1003.10 1002.80 1002.55 1002.37
1029.46 1028.71 1027.89 1027.00 1026.08 1025.15 1024.20 1023.25 1022.28 1021.29 1020.28 1019.23 1018.16 1017.07 1015.99 1014.93 1013.92 1012.98 1012.11 1011.31 1010.57 1009.88 1009.23 1008.58 1007.94 1007.30 1006.67 1006.06 1005.48 1004.96 1004.51 1004.13 1003.82 1003.55 1003.32 1003.11 1002.88 1002.64 1002.39 1002.13 1001.90 1001.72 1001.62
1029.83 1029.03 1028.13 1027.17 1026.16 1025.13 1024.09 1023.05 1021.98 1020.90 1019.80 1018.67 1017.52 1016.37 1015.24 1014.15 1013.12 1012.17 1011.30 1010.51 1009.78 1009.09 1008.43 1007.77 1007.10 1006.41 1005.72 1005.05 1004.42 1003.83 1003.33 1002.90 1002.55 1002.28 1002.05 1001.86 1001.67 1001.49 1001.30 1001.13 1000.99 1000.90 1000.89
1030.29 1029.41 1028.42 1027.37 1026.27 1025.15 1024.01 1022.87 1021.71 1020.54 1019.35 1018.14 1016.93 1015.73 1014.56 1013.45 1012.41 1011.45 1010.57 1009.77 1009.03 1008.32 1007.62 1006.91 1006.18 1005.43 1004.67 1003.93 1003.22 1002.57 1002.01 1001.54 1001.17 1000.90 1000.69 1000.54 1000.42 1000.32 1000.24 1000.17 1000.14 1000.17 1000.27
1030.75 1029.78 1028.70 1027.56 1026.37 1025.16 1023.93 1022.70 1021.46 1020.20 1018.94 1017.66 1016.39 1015.14 1013.94 1012.79 1011.73 1010.75 1009.85 1009.02 1008.24 1007.49 1006.73 1005.96 1005.16 1004.33 1003.49 1002.67 1001.89 1001.19 1000.59 1000.11 999.74 999.49 999.34 999.26 999.24 999.25 999.29 999.36 999.46 999.62 999.85
1031.15 1030.08 1028.91 1027.69 1026.43 1025.15 1023.85 1022.55 1021.23 1019.90 1018.57 1017.23 1015.89 1014.59 1013.34 1012.15 1011.05 1010.03 1009.08 1008.21 1007.37 1006.56 1005.73 1004.89 1004.01 1003.11 1002.21 1001.33 1000.51 999.79 999.18 998.71 998.39 998.19 998.12 998.15 998.25 998.40 998.58 998.80 999.05 999.34 999.70
1031.39 1030.24 1029.01 1027.74 1026.43 1025.10 1023.76 1022.40 1021.03 1019.64 1018.24 1016.83 1015.44 1014.07 1012.76 1011.51 1010.35 1009.27 1008.26 1007.32 1006.42 1005.54 1004.65 1003.74 1002.80 1001.86 1000.92 1000.03 999.21 998.50 997.93 997.51 997.26 997.16 997.20 997.35 997.58 997.88 998.21 998.58 998.97 999.40 999.88
1031.44 1030.24 1028.99 1027.69 1026.37 1025.03 1023.67 1022.29 1020.88 1019.44 1017.98 1016.51 1015.04 1013.61 1012.22 1010.90 1009.66 1008.51 1007.44 1006.43 1005.47 1004.52 1003.58 1002.63 1001.67 1000.72 999.79 998.92 998.14 997.49 996.99 996.66 996.51 996.52 996.68 996.96 997.33 997.76 998.24 998.74 999.26 999.81 1000.38
1031.31 1030.10 1028.85 1027.58 1026.28 1024.96 1023.62 1022.23 1020.80 1019.33 1017.82 1016.29 1014.75 1013.25 1011.79 1010.39 1009.08 1007.86 1006.72 1005.66 1004.64 1003.66 1002.70 1001.74 1000.79 999.87 998.99 998.18 997.48 996.92 996.52 996.30 996.26 996.38 996.65 997.05 997.53 998.08 998.67 999.27 999.90 1000.53 1001.18
1031.04 1029.86 1028.66 1027.44 1026.21 1024.94 1023.62 1022.25 1020.82 1019.33 1017.79 1016.21 1014.63 1013.06 1011.54 1010.09 1008.72 1007.45 1006.27 1005.16 1004.12 1003.13 1002.18 1001.25 1000.34 999.48 998.68 997.96 997.37 996.91 996.62 996.50 996.56 996.78 997.14 997.62 998.19 998.81 999.47 1000.15 1000.83 1001.51 1002.21
1030.71 1029.60 1028.48 1027.35 1026.19 1024.99 1023.73 1022.39 1020.98 1019.49 1017.94 1016.34 1014.73 1013.13 1011.58 1010.10 1008.71 1007.41 1006.21 1005.11 1004.07 1003.10 1002.17 1001.29 1000.46 999.67 998.96 998.35 997.85 997.50 997.30 997.27 997.40 997.68 998.10 998.63 999.23 999.88 1000.57 1001.27 1001.97 1002.68 1003.38
1030.41 1029.40 1028.38 1027.35 1026.28 1025.16 1023.96 1022.68 1021.30 1019.83 1018.29 1016.71 1015.11 1013.52 1011.98 1010.51 1009.13 1007.85 1006.67 1005.59 1004.59 1003.65 1002.78 1001.95 1001.18 1000.48 999.85 999.32 998.91 998.63 998.50 998.52 998.70 999.00 999.43 999.96 1000.56 1001.20 1001.87 1002.56 1003.25 1003.95 1004.64
1030.22 1029.32 1028.42 1027.49 1026.52 1025.47 1024.34 1023.11 1021.78 1020.36 1018.87 1017.33 1015.77 1014.24 1012.76 1011.34 1010.02 1008.80 1007.67 1006.63 1005.68 1004.79 1003.96 1003.19 1002.48 1001.83 1001.26 1000.79 1000.43 1000.19 1000.09 1000.13 1000.31 1000.61 1001.01 1001.51 1002.07 1002.67 1003.30 1003.94 1004.60 1005.26 1005.92
1030.19 1029.41 1028.61 1027.78 1026.89 1025.92 1024.85 1023.68 1022.41 1021.05 1019.63 1018.17 1016.71 1015.27 1013.88 1012.56 1011.34 1010.19 1009.14 1008.17 1007.27 1006.42 1005.63 1004.89 1004.20 1003.58 1003.03 1002.58 1002.23 1002.00 1001.90 1001.93 1002.08 1002.35 1002.71 1003.15 1003.65 1004.19 1004.76 1005.35 1005.95 1006.57 1007.19
1030.31 1029.64 1028.94 1028.19 1027.38 1026.46 1025.45 1024.34 1023.13 1021.85 1020.52 1019.16 1017.82 1016.50 1015.24 1014.05 1012.93 1011.89 1010.92 1010.01 1009.15 1008.33 1007.56 1006.82 1006.13 1005.50 1004.94 1004.48 1004.12 1003.87 1003.75 1003.75 1003.87 1004.09 1004.40 1004.78 1005.23 1005.71 1006.22 1006.75 1007.31 1007.87 1008.45
1030.55 1029.97 1029.35 1028.67 1027.90 1027.03 1026.07 1025.01 1023.87 1022.67 1021.44 1020.21 1018.99 1017.81 1016.69 1015.63 1014.63 1013.69 1012.79 1011.93 1011.10 1010.30 1009.51 1008.76 1008.04 1007.38 1006.79 1006.30 1005.91 1005.64 1005.50 1005.47 1005.56 1005.74 1006.02 1006.36 1006.76 1007.20 1007.66 1008.15 1008.65 1009.17 1009.71
1030.84 1030.33 1029.77 1029.12 1028.39 1027.56 1026.63 1025.63 1024.55 1023.44 1022.31 1021.19 1020.10 1019.06 1018.06 1017.13 1016.23 1015.38 1014.54 1013.72 1012.91 1012.10 1011.29 1010.51 1009.76 1009.06 1008.44 1007.92 1007.51 1007.23 1007.07 1007.03 1007.11 1007.28 1007.54 1007.87 1008.24 1008.65 1009.07 1009.52 1009.99 1010.46 1010.95
Thickness
5464 5463 5463 5462 5461 5460 5459 5458 5456 5455 5455 5455 5454 5454 5453 5453 5453 5452 5452 5452 5452 5452 5451 5452 5451 5451 5451 5451 5451 5450 5450 5451 5456 5465 5465 5464 5463 5463 5464 5463 5463 5462 5463
5450 5449 5448 5447 5446 5445 5444 5442 5440 5439 5438 5437 5437 5436 5436 5435 5435 5434 5434 5434 5434 5434 5433 5433 5433 5433 5432 5432 5432 5432 5433 5433 5434 5441 5446 5445 5444 5443 5444 5445 5445 5444 5444
5435 5435 5434 5432 5431 5429 5428 5426 5424 5423 5421 5420 5418 5418 5417 5416 5416 5415 5415 5415 5414 5414 5414 5413 5413 5413 5414 5413 5413 5413 5414 5414 5414 5417 5422 5424 5423 5422 5423 5424 5425 5425 5426
5422 5421 5419 5418 5416 5414 5412 5410 5408 5406 5404 5402 5400 5399 5398 5398 5397 5397 5396 5396 5395 5394 5394 5394 5394 5393 5393 5393 5394 5394 5395 5395 5396 5396 5399 5401 5402 5402 5401 5403 5406 5406 5407
5409 5407 5405 5403 5401 5399 5396 5394 5392 5389 5387 5385 5383 5381 5380 5379 5378 5377 5376 5376 5375 5375 5375 5374 5374 5373 5373 5373 5373 5374 5375 5375 5376 5377 5378 5379 5381 5380 5380 5380 5382 5385 5387
5396 5393 5391 5389 5386 5384 5381 5379 5376 5374 5371 5368 5365 5363 5361 5360 5358 5357 5356 5355 5356 5355 5355 5355 5355 5354 5354 5354 5354 5354 5353 5354 5355 5356 5357 5358 5359 5358 5358 5357 5358 5361 5366
5384 5381 5378 5375 5372 5370 5367 5364 5361 5357 5354 5351 5348 5345 5343 5341 5340 5338 5336 5335 5335 5335 5335 5335 5335 5335 5334 5335 5335 5336 5335 5334 5334 5334 5335 5336 5336 5337 5337 5337 5337 5337 5340
5372 5369 5365 5362 5359 5356 5353 5349 5345 5341 5337 5333 5330 5327 5325 5324 5322 5320 5318 5316 5316 5316 5315 5314 5315 5315 5315 5315 5316 5317 5317 5317 5316 5316 5316 5317 5316 5315 5315 5315 5315 5317 5319
5360 5356 5352 5348 5345 5342 5338 5334 5330 5326 5322 5318 5315 5312 5310 5308 5306 5303 5301 5299 5299 5298 5297 5296 5295 5296 5297 5297 5296 5298 5299 5300 5298 5297 5298 5297 5296 5295 5295 5294 5294 5295 5299
5349 5344 5339 5335 5331 5327 5323 5319 5315 5311 5308 5304 5302 5298 5295 5293 5291 5288 5285 5283 5283 5282 5282 5281 5279 5278 5277 5276 5275 5276 5279 5280 5279 5279 5279 5278 5276 5276 5275 5274 5274 5274 5277
5336 5331 5327 5322 5317 5313 5309 5305 5300 5297 5293 5290 5288 5285 5282 5279 5277 5274 5271 5267 5265 5265 5265 5263 5262 5261 5259 5259 5257 5256 5258 5258 5259 5258 5259 5259 5258 5257 5256 5255 5254 5255 5257
5324 5319 5314 5309 5304 5299 5295 5291 5286 5282 5279 5276 5274 5272 5270 5266 5263 5261 5258 5254 5250 5248 5248 5246 5245 5244 5243 5241 5239 5239 5238 5238 5237 5238 5238 5239 5239 5239 5238 5236 5236 5236 5238
5312 5307 5302 5297 5291 5286 5281 5277 5273 5268 5265 5263 5260 5258 5257 5254 5250 5247 5244 5241 5238 5234 5232 5231 5229 5228 5226 5224 5223 5222 5220 5218 5217 5217 5218 5219 5219 5219 5218 5219 5219 5220 5221
5301 5295 5290 5285 5280 5274 5269 5264 5259 5255 5252 5250 5247 5245 5243 5241 5237 5234 5231 5227 5224 5221 5218 5216 5214 5212 5210 5208 5206 5204 5202 5200 5198 5199 5199 5200 5200 5200 5200 5200 5201 5202 5204
5289 5284 5279 5273 5268 5263 5258 5252 5248 5244 5238 5236 5234 5231 5228 5227 5225 5221 5217 5214 5210 5207 5204 5201 5198 5197 5195 5194 5192 5189 5187 5184 5183 5182 5182 5183 5183 5184 5184 5184 5183 5184 5184
5279 5273 5268 5262 5257 5251 5247 5243 5239 5234 5231 5227 5223 5220 5218 5215 5213 5210 5206 5203 5199 5195 5190 5186 5184 5182 5181 5180 5178 5176 5174 5172 5170 5169 5168 5168 5169 5169 5168 5168 5168 5167 5168
5267 5262 5255 5250 5244 5239 5234 5230 5228 5226 5220 5216 5213 5209 5206 5204 5201 5198 5195 5191 5186 5181 5174 5171 5169 5168 5167 5165 5164 5163 5162 5160 5158 5157 5156 5156 5155 5155 5154 5154 5154 5154 5154
5256 5250 5243 5237 5232 5226 5221 5216 5212 5209 5208 5206 5202 5197 5195 5192 5189 5186 5183 5179 5173 5166 5161 5158 5156 5155 5153 5152 5151 5150 5149 5148 5146 5145 5144 5143 5142 5142 5142 5141 5141 5140 5141
5245 5239 5232 5226 5220 5214 5209 5204 5200 5196 5193 5191 5189 5186 5183 5180 5177 5174 5170 5163 5159 5155 5151 5148 5146 5144 5142 5141 5139 5138 5137 5136 5134 5133 5133 5132 5131 5130 5130 5130 5130 5129 5129
5235 5229 5222 5215 5209 5203 5198 5193 5189 5185 5182 5178 5175 5173 5171 5168 5165 5162 5157 5152 5148 5145 5142 5140 5137 5134 5132 5131 5129 5128 5127 5126 5125 5124 5124 5123 5122 5121 5121 5120 5119 5119 5118
5225 5218 5212 5205 5199 5194 5188 5183 5179 5175 5171 5168 5165 5162 5161 5156 5152 5149 5145 5142 5138 5136 5134 5131 5129 5127 5125 5123 5121 5120 5118 5118 5117 5116 5116 5115 5114 5113 5113 5112 5111 5110 5109
5214 5208 5201 5195 5190 5184 5179 5174 5170 5165 5161 5158 5156 5151 5149 5144 5141 5138 5135 5132 5129 5127 5125 5123 5122 5120 5118 5116 5115 5114 5113 5113 5112 5111 5110 5109 5107 5105 5104 5103 5102 5102 5101
5204 5197 5191 5185 5180 5175 5170 5165 5160 5156 5152 5148 5144 5141 5137 5134 5131 5128 5125 5123 5121 5119 5118 5116 5115 5114 5113 5111 5110 5109 5108 5108 5107 5106 5104 5103 5101 5099 5097 5096 5095 5093 5092
5194 5188 5182 5176 5171 5165 5161 5156 5151 5147 5142 5138 5134 5130 5127 5125 5122 5119 5117 5115 5113 5112 5110 5109 5108 5107 5106 5105 5104 5103 5103 5103 5102 5101 5100 5099 5097 5095 5093 5091 5089 5087 5086
5184 5178 5172 5167 5161 5156 5152 5147 5142 5138 5133 5129 5125 5122 5119 5116 5114 5111 5109 5108 5106 5105 5104 5102 5101 5100 5099 5099 5098 5098 5098 5098 5097 5097 5096 5094 5093 5091 5088 5086 5084 5083 5082
5174 5168 5162 5157 5152 5147 5142 5138 5134 5129 5125 5121 5116 5113 5110 5108 5106 5104 5102 5100 5099 5098 5097 5096 5094 5093 5093 5092 5092 5092 5093 5093 5093 5092 5091 5090 5089 5087 5084 5082 5080 5079 5078